Saint Simons Island, GA

8:25 PM EDT on September 25, 2017 (GMT -0400)
McKinnon

Weather History for KSSI - August, 2013

Change the Weather History Date:

Monday, August 5, 2013

  Actual Average Record
Temperature  
Mean Temperature 83 °F 83 °F  
Max Temperature 88 °F 90 °F 100 °F (1954)
Min Temperature 77 °F 76 °F 70 °F (1971)
Degree Days  
Heating Degree Days 0 0  
Month to date heating degree days 0 0  
Since 1 June heating degree days 0 0  
Since 1 July heating degree days 0 0  
Cooling Degree Days 18 18  
Month to date cooling degree days 90 90  
Year to date cooling degree days 1501 1544  
Since 1 June cooling degree days 1100 1102  
Growing Degree Days 32 (Base 50)    
Moisture  
Dew Point 75 °F    
Average Humidity 77    
Maximum Humidity 85    
Minimum Humidity 68    
Precipitation  
Precipitation 0.00 in 0.17 in 1.50 in (1979)
Month to date precipitation 0.74 0.80  
Year to date precipitation 27.78 24.64  
Snow  
Snow 0.00 in - 0.00 in ()
Month to date snowfall 0.0  
Since 1 June snowfall 0.0  
Since 1 July snowfall 0.0  
Snow Depth 0.00 in    
Sea Level Pressure  
Sea Level Pressure 29.98 in    
Wind  
Wind Speed 9 mph (ENE)    
Max Wind Speed 18 mph    
Max Gust Speed 24 mph    
Visibility 10 miles    
Events      
T = Trace of Precipitation, MM = Missing Value Source: NWS Daily Summary

Daily Weather History Graph

Daily Weather History Graph

Search for Another Location

Airport or City:

Trip Planner

Search our weather history database for the weather conditions in past years. The results will help you decide how hot, cold, wet, or windy it might be!

Date:

Astronomy

Aug. 05, 2013 Rise Set
Actual Time 6:45 AM EDT 8:17 PM EDT
Civil Twilight 6:19 AM EDT 8:43 PM EDT
Nautical Twilight 5:47 AM EDT 9:14 PM EDT
Astronomical Twilight 5:15 AM EDT 9:47 PM EDT
Moon 5:38 AM EDT (8/5) 7:19 PM EDT (8/5)
Length of Visible Light 14h 24m
Length of Day
13h 32m
Waning Crescent, 1% of the Moon is Illuminated
Aug 5
Waning Crescent
Aug 6
New
Aug 14
First Quarter
Aug 20
Full
Aug 28
Last Quarter

Hourly Weather History & Observations

Time (EDT) Temp. Heat Index Dew Point Humidity Pressure Visibility Wind Dir Wind Speed Gust Speed Precip Events Conditions
12:53 AM 81.0 °F 85.8 °F 73.0 °F 77% 29.99 in 10.0 mi WSW 3.5 mph - N/A   Clear
1:53 AM 80.1 °F 84.2 °F 73.0 °F 79% 29.98 in 10.0 mi Calm Calm - N/A   Clear
2:53 AM 79.0 °F - 72.0 °F 79% 29.96 in 10.0 mi Calm Calm - N/A   Clear
3:53 AM 78.1 °F - 72.0 °F 81% 29.96 in 10.0 mi West 3.5 mph - N/A   Partly Cloudy
4:53 AM 77.0 °F - 71.1 °F 82% 29.95 in 10.0 mi West 3.5 mph - N/A   Clear
5:53 AM 77.0 °F - 72.0 °F 84% 29.96 in 10.0 mi WNW 4.6 mph - N/A   Scattered Clouds
6:53 AM 77.0 °F - 72.0 °F 84% 29.97 in 10.0 mi Calm Calm - N/A   Overcast
7:53 AM 79.0 °F - 73.0 °F 82% 29.98 in 10.0 mi Calm Calm - N/A   Mostly Cloudy
8:53 AM 81.0 °F 86.2 °F 73.9 °F 79% 30.00 in 10.0 mi Calm Calm - N/A   Mostly Cloudy
9:32 AM 84.2 °F 92.3 °F 75.2 °F 74% 30.00 in 10.0 mi North 4.6 mph - N/A   Partly Cloudy
9:53 AM 84.0 °F 92.6 °F 75.9 °F 76% 30.00 in 10.0 mi North 4.6 mph - N/A   Mostly Cloudy
10:04 AM 84.2 °F 94.1 °F 77.0 °F 79% 30.00 in 10.0 mi NNW 5.8 mph - N/A   Mostly Cloudy
10:34 AM 84.2 °F 92.3 °F 75.2 °F 74% 30.00 in 10.0 mi Calm Calm - N/A   Mostly Cloudy
10:53 AM 84.9 °F 94.1 °F 75.9 °F 74% 30.01 in 10.0 mi NE 6.9 mph - N/A   Mostly Cloudy
11:53 AM 87.1 °F 97.3 °F 75.9 °F 69% 30.00 in 10.0 mi Variable 3.5 mph - N/A   Overcast
12:53 PM 87.1 °F 97.3 °F 75.9 °F 69% 29.99 in 10.0 mi East 6.9 mph - N/A   Scattered Clouds
1:53 PM 87.1 °F 98.8 °F 77.0 °F 72% 29.99 in 10.0 mi East 11.5 mph - N/A   Clear
2:53 PM 86.0 °F 95.1 °F 75.0 °F 70% 29.98 in 10.0 mi ENE 15.0 mph - N/A   Clear
3:53 PM 86.0 °F 96.0 °F 75.9 °F 72% 29.96 in 10.0 mi East 12.7 mph - N/A   Clear
4:53 PM 86.0 °F 96.0 °F 75.9 °F 72% 29.96 in 10.0 mi East 15.0 mph - N/A   Scattered Clouds
5:53 PM 82.9 °F 90.8 °F 75.9 °F 79% 29.96 in 10.0 mi ENE 13.8 mph - N/A   Partly Cloudy
6:53 PM 82.0 °F 89.4 °F 75.9 °F 82% 29.95 in 10.0 mi East 12.7 mph - N/A   Clear
7:34 PM 82.4 °F 89.5 °F 75.2 °F 79% 29.96 in 10.0 mi East 16.1 mph 24.2 mph N/A   Mostly Cloudy
7:53 PM 82.0 °F 88.6 °F 75.0 °F 79% 29.97 in 10.0 mi East 18.4 mph 23.0 mph N/A   Scattered Clouds
8:53 PM 81.0 °F 86.7 °F 75.0 °F 82% 30.00 in 10.0 mi ESE 9.2 mph - N/A   Partly Cloudy
9:53 PM 82.0 °F 88.6 °F 75.0 °F 79% 30.01 in 10.0 mi East 15.0 mph - N/A   Mostly Cloudy
10:16 PM 80.6 °F 86.2 °F 75.2 °F 84% 30.01 in 10.0 mi ESE 12.7 mph - N/A   Scattered Clouds
10:25 PM 82.4 °F 89.5 °F 75.2 °F 79% 30.00 in 10.0 mi East 13.8 mph - N/A   Mostly Cloudy
10:53 PM 81.0 °F 87.3 °F 75.9 °F 85% 30.01 in 10.0 mi ESE 10.4 mph - N/A   Mostly Cloudy
11:17 PM 80.6 °F 86.2 °F 75.2 °F 84% 30.00 in 10.0 mi ESE 10.4 mph - N/A   Scattered Clouds
11:39 PM 82.4 °F 89.5 °F 75.2 °F 79% 30.01 in 10.0 mi East 12.7 mph - N/A   Mostly Cloudy
11:53 PM 82.0 °F 89.4 °F 75.9 °F 82% 30.00 in 10.0 mi ESE 11.5 mph - N/A   Mostly Cloudy